Regional Weather Roundup
Issued by NWS San Angelo, TX

Home | Current Version | Previous Version | Text Only | Print | Product List | Glossary Off
Versions: 1 2 3 4 5 6 7 8 9 10 11 12 13 14 15 16 17 18 19 20 21 22 23 24 25 26 27 28 29 30 31 32 33 34 35 36 37 38 39 40 41 42 43 44 45 46 47 48 49 50

000
ASUS44 KSJT 311710
RWRSJT
WEST CENTRAL TEXAS REGIONAL WEATHER ROUNDUP
NATIONAL WEATHER SERVICE SAN ANGELO TX
1100 AM CST SAT JAN 31 2015

NOTE: "FAIR" INDICATES FEW OR NO CLOUDS BELOW 12,000 FEET WITH NO
SIGNIFICANT WEATHER AND/OR OBSTRUCTIONS TO VISIBILITY.

TXZ049-054-064>066-071>073-076>078-098-099-113-114-127-128-139-140-
154-155-168>170-311800
...LOCATIONS ACROSS WEST CENTRAL TEXAS...

CITY           SKY/WX    TMP DP  RH WIND       PRES   REMARKS
SAN ANGELO     LGT RAIN  50  48  93 CALM      30.04F
ABILENE        LGT RAIN  45  43  93 S10       30.06F FOG     WCI  40
DYESS AFB      LGT RAIN  45  43  93 SE8       30.05F
JUNCTION       LGT RAIN  50  49  96 E8        30.05F
SWEETWATER     CLOUDY    45  45 100 SE16      30.04F WCI  37
BROWNWOOD      LGT RAIN  48  45  87 SE12      30.08F
COLEMAN        RAIN      46  45  94 SE9       30.08S
SONORA         DRIZZLE   52  52 100 SE7       30.07F
OZONA          DRIZZLE   50  48  93 S10       30.04S
BRADY          NOT AVBL
$$

TEXAS PANHANDLE/OKLAHOMA PANHANDLE

CITY           SKY/WX    TMP DP  RH WIND       PRES   REMARKS
AMARILLO       LGT RAIN  34  33  96 S10       30.01F WCI  26
BORGER         LGT RAIN  37  34  89 S7        30.01F WCI  32
CANADIAN       LGT RAIN  39  38  97 S9        30.04S WCI  33
DALHART        CLOUDY    37  34  89 S13       29.96F WCI  29
DUMAS          LGT RAIN  34  33  95 S10       29.98F WCI  26
GUYMON         NOT AVBL
HEREFORD       DRIZZLE   37  37  99 S8        30.00S WCI  31
PAMPA          DRIZZLE   35  34  96 S14       30.02F WCI  26
PERRYTON       CLOUDY    37  36  93 S16       30.00S WCI  28
$$

SOUTHERN PANHANDLE/SOUTH PLAINS/ROLLING PLAINS

CITY           SKY/WX    TMP DP  RH WIND       PRES   REMARKS
LUBBOCK        LGT RAIN  38  38 100 SE7       30.00F FOG     WCI  33
SNYDER         DRIZZLE  N/A N/A N/A SE12      30.02S
CHILDRESS      RAIN      40  39  97 SE14      30.07F FOG     WCI  32
SEMINOLE       DRIZZLE   40  40 100 SE6       30.00F WCI  36
$$

PERMIAN BASIN

CITY           SKY/WX    TMP DP  RH WIND       PRES   REMARKS
MIDLAND        LGT RAIN  48  46  93 S8        29.99F FOG
ODESSA         CLOUDY    47  45  93 S6        29.99S FOG
WINK           CLOUDY    48  44  86 SE10      29.96F
$$

FAR WEST/SOUTHWEST MOUNTAINS/TRANS PECOS

CITY           SKY/WX    TMP DP  RH WIND       PRES   REMARKS
ALPINE         CLOUDY    56  47  73 S21G26    30.02S
DRYDEN           N/A     49  48  97 SE9       30.00S
EL PASO        LGT RAIN  45  44  97 NE6       29.92R
FORT STOCKTON  CLOUDY    50  47  89 SE9       29.97S
GUADALUPE PASS FOG       44  44 100 SW10      29.97S VSB<1/4 WCI  39
MARFA          CLOUDY    48  46  93 S14       29.99S
PECOS          CLOUDY    46  44  93 CALM      29.97F FOG
$$

DALLAS/FORT WORTH METROPLEX

CITY           SKY/WX    TMP DP  RH WIND       PRES   REMARKS
DFW AIRPORT    CLOUDY    49  33  54 SE14      30.17F
FTW MEACHAM    CLOUDY    51  34  52 SE14      30.16F
DAL-EXECUTIVE  CLOUDY    51  34  52 SE12      30.17F
GRAND PRAIRIE  PTSUNNY   50  36  57 SE9       30.19F
ADDISON        CLOUDY    48  30  49 SE12      30.20F
MESQUITE       CLOUDY    50  34  53 E13       30.21S
LANCASTER      PTSUNNY   50  33  52 SE10      30.21F
$$

NORTH CENTRAL TEXAS

CITY           SKY/WX    TMP DP  RH WIND       PRES   REMARKS
SHRMAN/DENISON DRIZZLE   47  37  66 SE13      30.22S
GAINESVILLE    CLOUDY    46  34  62 SE13      30.20F
BRIDGEPORT     CLOUDY    49  35  60 SE9G16    30.16F
DENTON         CLOUDY    48  33  56 SE12      30.17F
WAXAHACHIE     CLOUDY    50  37  59 E10       30.20F
GRANBURY       CLOUDY    50  36  59 E14       30.16F
$$

WESTERN NORTH TEXAS

CITY           SKY/WX    TMP DP  RH WIND       PRES   REMARKS
WICHITA FALLS  RAIN      43  39  86 E10       30.13F FOG     WCI  37
VERNON         CLOUDY    43  38  83 SE12      30.10F WCI  37
BRECKENRIDGE   CLOUDY    49  38  66 SE8       30.09S
COMANCHE       CLOUDY    46  42  84 SE13G18   30.11F
$$

CENTRAL AND SOUTH CENTRAL TEXAS

CITY           SKY/WX    TMP DP  RH WIND       PRES   REMARKS
AUSTIN/BERGSTM LGT RAIN  51  47  86 E6        30.13F FOG
WACO           CLOUDY    48  37  65 SE7       30.17F
HILLSBORO      CLOUDY    49  36  61 SE12      30.17F
TEMPLE         CLOUDY    48  36  61 E12       30.15F
KILLEEN-GRAY   CLOUDY    46  43  90 SE10      30.13F FOG
FORT HOOD      CLOUDY    47  42  82 E9        30.13F HAZE
GEORGETOWN     CLOUDY    48  43  81 E3        30.14F
LAGO VISTA     DRIZZLE   48  46  92 E7        30.13F
SAN MARCOS     DRIZZLE   50  46  87 E6        30.13F FOG
NEW BRAUNFELS  LGT RAIN  52  50  93 E3        30.11F VSB 1
RANDOLPH AFB   CLOUDY    52  52 100 VRB3      30.12F FOG
SAN ANTONIO    DRZL/FOG  53  52  96 E8        30.11F VSB 1
STINSON        CLOUDY    55  53  93 E9        30.09F FOG
PLEASANTON     NOT AVBL
LA GRANGE      CLOUDY    57  50  77 SE9       30.14F
GIDDINGS       CLOUDY    55  46  71 SE10      30.19F
$$

EAST TEXAS

CITY           SKY/WX    TMP DP  RH WIND       PRES   REMARKS
PARIS          CLOUDY    48  30  49 SE18      30.24F
CLARKSVILLE    NOT AVBL
TYLER          CLOUDY    51  33  50 SE13      30.22F
LONGVIEW       PTSUNNY   52  33  48 SE10      30.24F
PALESTINE      CLOUDY    54  36  50 SE10      30.24R
NACOGDOCHES    MOSUNNY   50  34  53 SE10      30.24F
$$

TEXAS HILL COUNTRY AND EDWARDS PLATEAU

CITY           SKY/WX    TMP DP  RH WIND       PRES   REMARKS
LLANO          CLOUDY    48  46  93 SE9       30.14F FOG
HORSESHOE BAY  DRIZZLE   48  48 100 SE8       30.11F
KERRVILLE      LGT RAIN  51  50  96 E8        30.09F
FREDERICKSBRG  CLOUDY    49  48  96 SE5       30.09F
ROCKSPRINGS    NOT AVBL
HONDO          LGT RAIN  53  53 100 E10       30.10F VSB 1/4
UVALDE         RAIN      53  52  99 E13G18    30.07F
DEL RIO        LGT RAIN  50  49  96 SE7       30.04F FOG
$$

SOUTHEAST TEXAS

CITY           SKY/WX    TMP DP  RH WIND       PRES   REMARKS
COLLEGE STN    CLOUDY    53  42  66 E9        30.19F
CALDWELL       PTSUNNY   54  43  66 E9        30.20F
CROCKETT       CLOUDY    54  39  58 SE7       30.26R
BRENHAM        CLOUDY    57  46  67 E10       30.19S
HUNTSVILLE     CLOUDY    51  40  65 E6        30.20F
CONROE         CLOUDY    51  40  65 SE8       30.21F
HOUSTON BUSH   CLOUDY    56  45  66 E10       30.20F
HOUSTON HOBBY  CLOUDY    57  49  74 E12G20    30.19F
PERLAND        CLOUDY    59  50  72 E17G23    30.20F
WHARTON        PTSUNNY   63  55  76 E13       30.17S
$$

THE UPPER TEXAS COAST

CITY           SKY/WX    TMP DP  RH WIND       PRES   REMARKS
ORANGE         CLOUDY    52  43  70 E10       30.26F
PORT ARTHUR    CLOUDY    56  44  64 E17       30.21F
GALVESTON      CLOUDY    61  54  77 E15       30.19F
ANGLETON       CLOUDY    62  55  77 E10G20    30.17F
BAY CITY       CLOUDY    66  59  78 E14       30.16S
$$

TEXAS COASTAL BEND, RIO GRANDE PLAINS DEEP SOUTH TEXAS

CITY           SKY/WX    TMP DP  RH WIND       PRES   REMARKS
VICTORIA       PTSUNNY   68  60  75 SE20      30.13F
BEEVILLE       CLOUDY    65  64  96 SE10      30.10F
ROCKPORT       PTSUNNY   69  61  75 SE13      30.12S
PORT ARANSAS   PTSUNNY   66  62  85 SE7       30.11S
PORT LAVACA    PTSUNNY   66  60  81 SE16G22   30.13F
CORPUS CHRISTI PTSUNNY   70  64  81 SE20      30.10F
KINGSVILLE NAS PTSUNNY   72  64  76 SE20G26   30.09F
COTULLA        NOT AVBL
LAREDO         CLOUDY    67  60  78 SE16      30.06F
BROWNSVILLE    PTSUNNY   74  63  68 SE17      30.09F
PORT ISABEL    PTSUNNY   71  62  73 SE15      30.09S
HEBBRONVILLE   CLOUDY    65  61  88 SE10G17   30.07F
MCALLEN        CLOUDY    72  61  68 SE18G29   30.07F
WESLACO        PTSUNNY   73  60  65 SE17G26   30.07F
FALFURRIAS     CLOUDY    71  60  67 SE18G24   30.08S
EDINBURG       CLOUDY    74  61  63 S16       30.08F
$$


USA.gov is the U.S. government's official web portal to all federal, state and local government web resources and services.